QPF
0.00 0.00 0.00 0.00 0.00 0.00 0.00 0.00 0.00 0.00 0.00 0.00 0.00 0.00 0.00 0.00 0.01 0.04 0.01 0.04 0.03 0.05 0.01 0.01 0.00 0.01 0.00 0.00 0.00 0.00 0.00 0.00 0.00 0.00 0.01 0.01 0.00 0.00 0.00 0.00 0.00 0.00 0.00
0.00 0.00 0.00 0.00 0.00 0.00 0.00 0.00 0.00 0.00 0.00 0.00 0.00 0.00 0.00 0.00 0.01 0.02 0.02 0.04 0.07 0.07 0.02 0.02 0.08 0.05 0.00 0.00 0.02 0.00 0.00 0.01 0.01 0.01 0.01 0.00 0.00 0.00 0.00 0.00 0.00 0.02 0.01
0.00 0.00 0.00 0.00 0.00 0.00 0.00 0.00 0.00 0.00 0.00 0.00 0.00 0.00 0.00 0.01 0.01 0.01 0.02 0.10 0.07 0.04 0.02 0.03 0.10 0.05 0.04 0.00 0.01 0.01 0.01 0.02 0.01 0.00 0.01 0.00 0.01 0.02 0.03 0.03 0.03 0.07 0.09
0.00 0.00 0.00 0.00 0.00 0.00 0.00 0.00 0.00 0.00 0.00 0.00 0.00 0.01 0.01 0.00 0.03 0.01 0.06 0.08 0.05 0.01 0.02 0.02 0.05 0.03 0.01 0.01 0.03 0.04 0.00 0.00 0.00 0.00 0.00 0.01 0.03 0.06 0.07 0.03 0.05 0.04 0.03
0.00 0.00 0.00 0.00 0.00 0.00 0.00 0.00 0.00 0.00 0.00 0.00 0.00 0.01 0.01 0.00 0.04 0.09 0.05 0.03 0.02 0.01 0.03 0.02 0.01 0.00 0.00 0.03 0.03 0.00 0.01 0.00 0.00 0.00 0.02 0.01 0.03 0.07 0.05 0.05 0.05 0.01 0.01
0.00 0.00 0.00 0.00 0.00 0.00 0.00 0.00 0.00 0.00 0.00 0.00 0.00 0.01 0.00 0.02 0.01 0.00 0.01 0.02 0.03 0.04 0.05 0.05 0.00 0.00 0.00 0.00 0.01 0.00 0.00 0.00 0.01 0.00 0.00 0.02 0.02 0.06 0.04 0.03 0.03 0.01 0.02
0.00 0.00 0.00 0.00 0.00 0.00 0.00 0.00 0.00 0.00 0.00 0.00 0.00 0.01 0.01 0.01 0.00 0.00 0.00 0.02 0.03 0.05 0.06 0.08 0.03 0.01 0.00 0.01 0.00 0.00 0.00 0.00 0.01 0.02 0.01 0.01 0.01 0.03 0.02 0.04 0.04 0.04 0.05
0.00 0.00 0.00 0.00 0.00 0.00 0.00 0.00 0.00 0.00 0.00 0.00 0.01 0.03 0.01 0.00 0.02 0.00 0.00 0.00 0.01 0.04 0.03 0.03 0.02 0.00 0.00 0.01 0.00 0.00 0.01 0.00 0.00 0.01 0.01 0.00 0.01 0.01 0.01 0.02 0.02 0.03 0.02
0.00 0.00 0.00 0.00 0.00 0.00 0.00 0.00 0.00 0.00 0.00 0.00 0.01 0.02 0.01 0.01 0.02 0.00 0.00 0.01 0.01 0.04 0.00 0.01 0.00 0.00 0.00 0.00 0.00 0.00 0.01 0.00 0.00 0.00 0.00 0.00 0.00 0.00 0.00 0.00 0.00 0.00 0.00
0.00 0.00 0.00 0.00 0.00 0.01 0.00 0.00 0.00 0.00 0.00 0.01 0.00 0.05 0.01 0.01 0.01 0.00 0.00 0.00 0.02 0.03 0.00 0.00 0.00 0.00 0.00 0.00 0.01 0.00 0.01 0.01 0.00 0.00 0.00 0.00 0.00 0.00 0.00 0.00 0.00 0.00 0.00
0.00 0.00 0.00 0.00 0.00 0.01 0.00 0.00 0.00 0.01 0.03 0.04 0.02 0.02 0.00 0.00 0.01 0.01 0.01 0.02 0.04 0.01 0.00 0.00 0.00 0.00 0.00 0.00 0.00 0.00 0.00 0.00 0.00 0.00 0.00 0.00 0.00 0.00 0.00 0.00 0.00 0.02 0.01
0.00 0.00 0.00 0.00 0.00 0.01 0.00 0.00 0.01 0.02 0.07 0.05 0.01 0.00 0.00 0.00 0.01 0.00 0.01 0.01 0.01 0.00 0.00 0.00 0.00 0.00 0.00 0.00 0.00 0.00 0.00 0.00 0.00 0.00 0.02 0.01 0.00 0.00 0.00 0.00 0.00 0.00 0.00
0.00 0.00 0.00 0.00 0.00 0.01 0.00 0.00 0.02 0.05 0.07 0.01 0.00 0.00 0.00 0.00 0.01 0.00 0.00 0.00 0.00 0.00 0.00 0.00 0.00 0.00 0.00 0.00 0.00 0.00 0.00 0.00 0.00 0.00 0.02 0.01 0.01 0.00 0.00 0.00 0.00 0.00 0.00
0.00 0.00 0.00 0.00 0.00 0.00 0.00 0.01 0.03 0.03 0.01 0.00 0.00 0.00 0.00 0.00 0.00 0.00 0.00 0.00 0.00 0.00 0.00 0.00 0.00 0.00 0.00 0.00 0.00 0.00 0.00 0.00 0.00 0.00 0.00 0.00 0.00 0.00 0.00 0.00 0.00 0.00 0.00
0.00 0.00 0.00 0.00 0.00 0.00 0.00 0.00 0.00 0.01 0.00 0.00 0.00 0.00 0.00 0.00 0.00 0.00 0.00 0.00 0.00 0.00 0.00 0.00 0.00 0.00 0.00 0.00 0.00 0.00 0.00 0.00 0.00 0.00 0.00 0.00 0.00 0.00 0.00 0.00 0.00 0.00 0.00
0.00 0.00 0.00 0.00 0.00 0.00 0.00 0.00 0.00 0.00 0.00 0.00 0.00 0.00 0.00 0.00 0.00 0.00 0.00 0.00 0.00 0.00 0.00 0.00 0.00 0.00 0.00 0.00 0.00 0.00 0.00 0.00 0.00 0.00 0.00 0.00 0.00 0.00 0.00 0.00 0.00 0.00 0.00
0.00 0.00 0.00 0.00 0.00 0.00 0.00 0.00 0.00 0.00 0.00 0.00 0.00 0.00 0.00 0.00 0.00 0.00 0.00 0.00 0.00 0.00 0.00 0.00 0.00 0.00 0.00 0.00 0.00 0.00 0.00 0.00 0.00 0.00 0.00 0.00 0.00 0.00 0.00 0.00 0.00 0.00 0.00
0.00 0.00 0.00 0.00 0.00 0.00 0.00 0.00 0.00 0.00 0.00 0.00 0.00 0.00 0.00 0.00 0.00 0.00 0.00 0.00 0.00 0.00 0.00 0.00 0.00 0.00 0.00 0.00 0.00 0.00 0.00 0.00 0.00 0.00 0.00 0.00 0.00 0.00 0.00 0.00 0.00 0.00 0.00
0.00 0.00 0.00 0.00 0.00 0.00 0.00 0.00 0.00 0.00 0.00 0.00 0.00 0.00 0.00 0.00 0.00 0.00 0.00 0.00 0.01 0.01 0.00 0.00 0.00 0.00 0.00 0.00 0.00 0.00 0.00 0.00 0.00 0.00 0.00 0.00 0.00 0.00 0.00 0.00 0.00 0.00 0.00
0.00 0.00 0.00 0.00 0.00 0.00 0.00 0.00 0.00 0.00 0.00 0.00 0.00 0.00 0.00 0.00 0.00 0.00 0.00 0.00 0.00 0.01 0.00 0.00 0.00 0.00 0.00 0.00 0.00 0.00 0.00 0.00 0.00 0.00 0.00 0.00 0.00 0.00 0.00 0.00 0.00 0.00 0.00
0.00 0.00 0.00 0.00 0.00 0.00 0.00 0.00 0.00 0.00 0.00 0.00 0.00 0.00 0.00 0.00 0.00 0.00 0.00 0.00 0.00 0.00 0.00 0.00 0.00 0.00 0.00 0.00 0.00 0.00 0.00 0.00 0.00 0.00 0.00 0.00 0.00 0.00 0.00 0.00 0.00 0.00 0.00
0.00 0.00 0.00 0.00 0.00 0.00 0.00 0.00 0.00 0.00 0.00 0.00 0.00 0.00 0.00 0.00 0.00 0.00 0.00 0.00 0.00 0.00 0.00 0.00 0.00 0.00 0.00 0.00 0.00 0.00 0.00 0.00 0.00 0.00 0.00 0.00 0.00 0.00 0.00 0.00 0.00 0.00 0.00
0.00 0.00 0.00 0.00 0.00 0.00 0.00 0.00 0.00 0.00 0.00 0.00 0.00 0.00 0.00 0.00 0.00 0.00 0.00 0.00 0.00 0.00 0.00 0.00 0.00 0.00 0.00 0.00 0.00 0.00 0.00 0.00 0.00 0.00 0.00 0.00 0.00 0.00 0.00 0.00 0.00 0.00 0.00
0.00 0.00 0.00 0.00 0.00 0.00 0.00 0.00 0.00 0.00 0.00 0.00 0.00 0.00 0.00 0.00 0.00 0.00 0.00 0.00 0.00 0.00 0.00 0.00 0.00 0.00 0.00 0.00 0.00 0.00 0.00 0.00 0.00 0.00 0.00 0.00 0.00 0.00 0.00 0.00 0.00 0.00 0.00
0.01 0.00 0.00 0.00 0.00 0.00 0.00 0.00 0.00 0.00 0.00 0.00 0.00 0.00 0.00 0.00 0.00 0.00 0.00 0.00 0.00 0.00 0.00 0.00 0.00 0.00 0.00 0.00 0.00 0.00 0.00 0.00 0.00 0.00 0.00 0.00 0.00 0.00 0.00 0.00 0.00 0.00 0.00
0.00 0.00 0.00 0.00 0.00 0.00 0.00 0.00 0.00 0.00 0.00 0.00 0.00 0.00 0.00 0.00 0.00 0.00 0.00 0.00 0.00 0.00 0.00 0.00 0.00 0.00 0.00 0.00 0.00 0.00 0.00 0.00 0.00 0.00 0.00 0.00 0.00 0.00 0.00 0.00 0.00 0.00 0.00
MSLP
1017.97 1018.17 1018.15 1018.11 1018.10 1018.02 1017.84 1017.50 1017.21 1016.89 1016.53 1016.13 1015.81 1015.45 1014.99 1014.76 1014.45 1014.24 1014.18 1014.24 1014.33 1014.35 1014.28 1014.35 1014.20 1014.57 1014.28 1014.33 1014.24 1014.47 1014.79 1014.83 1014.50 1014.01 1014.19 1013.81 1013.59 1013.12 1013.14 1012.53 1012.36 1012.81 1012.95
1018.25 1018.21 1018.14 1018.20 1018.18 1018.01 1017.70 1017.25 1016.96 1016.50 1016.12 1015.71 1015.30 1014.97 1014.72 1014.35 1013.87 1013.60 1013.40 1013.24 1013.28 1013.40 1013.46 1013.56 1013.57 1013.61 1013.88 1013.84 1013.73 1013.67 1013.77 1014.27 1014.44 1014.24 1014.06 1013.70 1013.28 1013.12 1013.05 1012.61 1012.45 1012.25 1012.38
1018.40 1018.37 1018.27 1018.24 1018.14 1017.86 1017.48 1017.04 1016.69 1016.13 1015.62 1015.20 1014.77 1014.32 1014.13 1013.68 1013.31 1012.97 1012.85 1012.70 1012.69 1012.81 1013.02 1013.02 1013.24 1013.10 1013.04 1013.02 1013.25 1013.26 1013.36 1013.75 1013.96 1014.03 1013.68 1013.52 1013.33 1013.19 1012.66 1012.46 1012.42 1012.29 1012.54
1018.61 1018.43 1018.28 1018.17 1017.97 1017.68 1017.29 1016.74 1016.27 1015.80 1015.28 1014.84 1014.34 1013.81 1013.76 1013.56 1013.07 1012.54 1012.40 1012.40 1012.44 1012.60 1012.82 1012.83 1012.75 1012.79 1012.83 1012.84 1013.09 1013.11 1013.31 1013.57 1013.62 1013.50 1013.39 1013.16 1013.20 1012.85 1012.50 1012.48 1012.69 1012.94 1012.98
1018.53 1018.36 1018.27 1018.13 1017.82 1017.41 1016.96 1016.51 1015.94 1015.48 1015.07 1014.61 1013.98 1013.39 1013.42 1013.19 1012.88 1012.30 1012.23 1012.34 1012.24 1012.29 1012.43 1012.39 1012.54 1012.72 1012.95 1012.93 1013.24 1013.46 1013.33 1013.17 1012.99 1012.94 1012.77 1012.72 1012.77 1012.68 1012.79 1013.08 1013.24 1013.56 1013.88
1018.54 1018.38 1018.25 1017.95 1017.55 1017.11 1016.69 1016.30 1015.81 1015.31 1014.86 1014.29 1013.54 1013.00 1013.03 1012.74 1012.44 1012.47 1012.36 1012.18 1012.05 1011.96 1011.98 1012.18 1012.39 1012.70 1013.08 1013.21 1013.46 1013.45 1013.14 1012.60 1012.40 1012.49 1012.30 1012.52 1012.82 1012.36 1013.22 1013.00 1013.40 1013.79 1014.39
1018.59 1018.33 1018.02 1017.72 1017.30 1016.96 1016.54 1016.06 1015.55 1015.13 1014.62 1013.87 1013.23 1012.51 1012.15 1012.51 1012.43 1012.25 1012.16 1012.02 1011.83 1011.66 1011.76 1012.06 1012.05 1012.69 1012.95 1013.24 1013.40 1013.01 1012.75 1012.65 1012.41 1012.13 1011.98 1012.35 1012.95 1013.13 1013.30 1013.60 1013.70 1014.08 1014.54
1018.46 1018.17 1017.82 1017.53 1017.11 1016.69 1016.30 1015.82 1015.41 1014.93 1014.27 1013.63 1013.06 1012.24 1012.06 1012.11 1012.05 1011.95 1012.01 1012.05 1011.56 1011.47 1011.74 1012.01 1012.21 1012.60 1012.94 1013.22 1013.39 1012.89 1012.85 1012.56 1012.53 1012.24 1012.18 1012.70 1013.04 1013.33 1013.43 1013.76 1014.08 1014.59 1015.29
1018.21 1017.92 1017.59 1017.31 1016.87 1016.45 1016.06 1015.62 1015.16 1014.61 1013.86 1013.42 1012.97 1012.11 1012.12 1011.79 1011.67 1011.71 1012.00 1011.83 1011.53 1011.32 1011.75 1012.33 1012.39 1012.57 1013.08 1013.52 1013.43 1013.34 1012.86 1012.98 1013.12 1012.92 1012.89 1013.17 1013.65 1013.85 1013.66 1013.72 1013.87 1013.76 1014.46
1017.87 1017.63 1017.62 1017.32 1016.75 1016.26 1015.97 1015.51 1014.98 1014.32 1013.53 1013.10 1012.73 1012.20 1012.03 1011.76 1011.61 1011.59 1011.79 1011.74 1011.44 1011.38 1011.72 1012.13 1012.45 1012.70 1013.18 1013.27 1013.35 1013.24 1013.31 1012.99 1012.84 1012.96 1013.45 1013.96 1013.84 1014.37 1014.40 1013.67 1013.63 1013.62 1013.99
1017.56 1017.73 1017.52 1017.14 1016.66 1016.22 1016.05 1015.29 1014.74 1013.97 1013.21 1012.87 1012.64 1012.38 1012.12 1011.99 1011.51 1011.56 1011.45 1011.13 1011.19 1011.28 1011.45 1011.88 1012.42 1012.92 1013.30 1013.24 1013.53 1013.32 1013.23 1013.18 1013.35 1013.23 1013.44 1013.62 1013.73 1014.05 1014.09 1014.09 1014.15 1013.84 1013.54
1017.67 1017.42 1016.89 1016.79 1016.26 1016.01 1015.90 1015.04 1014.51 1013.96 1013.36 1013.07 1012.70 1012.62 1012.39 1012.02 1011.63 1011.50 1011.53 1011.62 1011.57 1011.35 1011.43 1011.81 1012.31 1013.00 1013.18 1013.28 1013.38 1013.49 1013.52 1013.53 1013.59 1013.32 1013.28 1013.22 1013.27 1013.44 1013.88 1014.09 1014.45 1014.46 1014.42
1017.35 1016.93 1016.57 1016.46 1016.11 1015.84 1015.74 1015.16 1014.64 1014.20 1013.71 1013.50 1013.25 1013.15 1012.85 1012.54 1011.79 1011.80 1011.80 1011.91 1011.85 1011.56 1011.58 1012.31 1012.67 1013.14 1013.23 1013.51 1013.53 1013.49 1013.43 1013.05 1012.91 1012.80 1012.82 1012.89 1013.09 1013.54 1014.08 1014.34 1014.60 1014.76 1014.90
1016.81 1016.51 1016.32 1016.12 1015.98 1015.78 1015.46 1015.08 1014.76 1014.41 1014.23 1013.89 1013.74 1013.53 1013.18 1012.87 1012.57 1012.47 1011.88 1012.12 1012.20 1012.00 1012.19 1012.59 1012.79 1012.96 1013.16 1013.44 1013.72 1013.51 1013.23 1013.11 1012.93 1012.89 1012.97 1013.25 1013.64 1013.90 1013.88 1014.11 1014.20 1014.48 1014.42
1016.26 1016.18 1016.01 1015.71 1015.68 1015.43 1015.09 1014.96 1014.75 1014.52 1014.90 1014.64 1014.02 1013.86 1013.55 1013.24 1013.11 1013.20 1012.83 1012.20 1011.92 1011.75 1012.15 1012.43 1012.56 1012.57 1012.78 1012.91 1013.01 1013.13 1013.18 1013.26 1013.08 1013.16 1013.19 1013.24 1013.33 1013.58 1013.79 1014.22 1014.16 1014.30 1014.12
1015.87 1015.67 1015.53 1015.54 1015.32 1015.02 1014.79 1014.53 1014.66 1014.80 1014.63 1014.42 1014.19 1014.05 1013.66 1013.55 1013.31 1012.98 1012.87 1012.69 1012.48 1012.35 1012.32 1012.02 1012.10 1012.12 1012.12 1012.31 1012.44 1012.68 1012.84 1013.26 1013.00 1013.14 1013.16 1013.16 1013.09 1013.29 1013.51 1013.97 1014.10 1014.12 1014.13
1015.49 1015.44 1015.31 1015.28 1014.96 1014.71 1014.57 1014.42 1014.21 1014.49 1014.38 1014.20 1014.02 1013.89 1013.73 1013.38 1013.07 1012.93 1012.86 1012.60 1012.60 1012.48 1011.93 1011.83 1011.93 1012.22 1011.72 1012.07 1012.05 1012.19 1012.22 1012.51 1012.98 1012.95 1012.91 1012.98 1013.01 1013.00 1013.50 1013.56 1013.86 1014.02 1014.13
1015.05 1015.18 1015.12 1014.89 1014.68 1014.50 1014.30 1014.17 1014.03 1014.05 1014.01 1013.64 1013.41 1013.61 1013.53 1013.35 1013.13 1012.86 1012.73 1012.70 1012.66 1012.35 1011.48 1011.29 1011.42 1011.70 1011.60 1011.62 1011.74 1011.80 1011.87 1012.16 1012.53 1012.59 1012.67 1012.80 1012.90 1012.96 1013.13 1013.23 1013.44 1013.59 1013.69
1014.19 1014.29 1014.43 1014.42 1014.35 1014.21 1014.09 1013.84 1013.67 1013.60 1013.41 1013.08 1012.80 1012.76 1012.99 1012.99 1012.97 1012.89 1012.72 1012.09 1011.36 1011.19 1011.16 1011.11 1011.06 1011.22 1011.28 1011.35 1011.41 1011.55 1011.99 1011.67 1011.93 1012.18 1012.25 1012.38 1012.57 1012.73 1012.92 1012.98 1013.09 1013.61 1013.83
1013.49 1013.80 1014.01 1013.78 1013.58 1013.58 1013.46 1013.31 1013.10 1013.06 1013.00 1012.70 1012.45 1012.43 1012.57 1012.73 1012.58 1012.70 1012.45 1012.00 1011.64 1011.01 1010.91 1010.87 1010.83 1010.94 1010.97 1010.98 1011.20 1011.48 1011.56 1011.57 1011.68 1011.80 1011.91 1012.05 1012.17 1012.36 1012.41 1012.54 1012.72 1012.88 1013.11
1012.72 1012.96 1013.32 1013.14 1012.83 1012.70 1012.68 1012.75 1012.66 1012.59 1012.45 1012.30 1012.18 1012.21 1013.05 1012.96 1012.38 1012.41 1012.32 1012.31 1011.88 1011.24 1010.93 1010.78 1010.67 1010.64 1010.58 1010.68 1011.05 1011.03 1011.09 1011.09 1011.08 1011.23 1011.36 1011.73 1011.88 1011.94 1012.13 1012.12 1012.34 1012.63 1012.77
1012.10 1012.14 1012.22 1012.17 1011.98 1011.99 1011.93 1011.91 1011.97 1011.93 1011.89 1011.77 1011.70 1011.79 1012.51 1012.21 1011.67 1011.48 1011.45 1011.39 1011.42 1011.58 1011.63 1011.55 1010.88 1010.57 1010.37 1010.30 1010.22 1010.24 1010.29 1010.84 1011.04 1010.88 1011.34 1011.65 1011.55 1011.57 1011.46 1011.72 1011.95 1012.15 1012.34
1011.18 1011.18 1011.18 1011.17 1011.14 1011.15 1011.32 1011.30 1011.10 1011.09 1011.04 1011.04 1011.10 1011.16 1011.17 1011.16 1010.97 1010.81 1010.74 1010.72 1010.71 1010.84 1011.09 1011.29 1011.23 1010.91 1010.39 1010.38 1010.43 1010.33 1010.47 1010.40 1010.27 1010.50 1010.71 1010.87 1011.01 1011.16 1011.19 1011.28 1011.42 1011.49 1011.71
1010.43 1010.30 1010.32 1010.30 1010.28 1010.37 1010.25 1010.10 1010.16 1010.33 1010.36 1010.29 1010.27 1010.23 1010.21 1010.20 1010.19 1010.21 1010.24 1010.18 1010.29 1010.31 1010.32 1010.59 1010.73 1010.63 1010.62 1010.50 1010.53 1010.57 1010.26 1010.28 1010.53 1010.59 1010.85 1010.73 1010.76 1011.04 1010.94 1010.86 1010.92 1011.01 1011.21
1010.60 1010.32 1010.27 1009.85 1009.60 1009.50 1009.61 1009.47 1009.39 1009.22 1009.23 1009.22 1009.28 1009.39 1009.28 1009.19 1009.19 1009.30 1009.43 1009.46 1009.47 1009.56 1009.66 1009.69 1009.76 1010.07 1010.34 1010.34 1010.40 1010.41 1010.61 1011.07 1010.94 1010.88 1010.83 1010.94 1010.97 1011.03 1010.84 1010.74 1010.72 1010.91 1011.20
1010.23 1010.22 1009.97 1010.12 1010.05 1009.41 1009.15 1008.98 1009.13 1008.70 1008.51 1008.38 1008.32 1008.12 1008.11 1008.15 1008.17 1008.22 1008.33 1008.47 1008.55 1008.63 1008.74 1008.84 1008.93 1009.17 1009.43 1009.78 1009.96 1010.28 1010.59 1010.96 1011.31 1011.40 1010.81 1010.66 1010.73 1010.85 1011.17 1011.40 1011.32 1011.17 1011.23
Thickness
5558 5550 5545 5540 5536 5531 5527 5524 5521 5519 5516 5514 5513 5511 5510 5509 5510 5511 5511 5511 5513 5514 5516 5517 5520 5517 5521 5523 5526 5525 5522 5524 5526 5529 5527 5528 5528 5531 5531 5537 5541 5541 5544
5545 5540 5536 5531 5525 5521 5518 5516 5513 5512 5509 5509 5509 5508 5505 5505 5509 5510 5511 5514 5515 5516 5519 5520 5520 5522 5521 5524 5526 5527 5528 5523 5520 5521 5520 5521 5525 5525 5526 5531 5534 5538 5540
5535 5530 5526 5520 5515 5512 5509 5508 5506 5505 5505 5505 5506 5506 5504 5506 5507 5511 5512 5514 5516 5517 5519 5521 5520 5523 5524 5526 5526 5527 5527 5522 5519 5517 5518 5518 5520 5521 5527 5529 5531 5535 5535
5525 5521 5516 5512 5508 5504 5502 5501 5501 5499 5499 5499 5502 5504 5501 5501 5505 5509 5512 5514 5516 5518 5518 5520 5523 5523 5524 5526 5523 5524 5522 5520 5518 5517 5517 5520 5519 5524 5527 5528 5528 5529 5532
5517 5513 5509 5504 5500 5497 5495 5494 5494 5492 5492 5493 5497 5501 5499 5501 5503 5508 5510 5512 5516 5518 5520 5523 5523 5522 5521 5522 5520 5518 5521 5521 5523 5522 5525 5526 5525 5525 5523 5521 5522 5523 5526
5512 5507 5501 5497 5494 5490 5488 5485 5484 5484 5485 5488 5494 5498 5497 5501 5505 5506 5509 5513 5517 5519 5522 5522 5522 5520 5517 5517 5516 5517 5519 5525 5528 5528 5532 5529 5527 5526 5520 5524 5523 5525 5526
5504 5499 5495 5491 5486 5481 5477 5474 5474 5473 5476 5481 5488 5496 5500 5498 5501 5505 5508 5514 5518 5521 5522 5522 5524 5520 5519 5517 5517 5520 5523 5525 5529 5533 5536 5534 5528 5527 5526 5522 5525 5524 5525
5499 5494 5488 5481 5475 5469 5463 5460 5460 5461 5466 5473 5480 5490 5494 5497 5500 5504 5506 5511 5518 5522 5521 5522 5522 5521 5519 5520 5519 5523 5525 5530 5532 5535 5536 5532 5531 5529 5530 5528 5526 5524 5520
5494 5487 5480 5472 5463 5454 5446 5441 5443 5449 5458 5464 5473 5484 5488 5495 5499 5503 5504 5511 5516 5521 5521 5518 5520 5521 5518 5517 5520 5522 5529 5529 5528 5532 5534 5533 5530 5530 5531 5532 5533 5537 5534
5490 5482 5468 5455 5445 5432 5421 5419 5424 5435 5448 5458 5467 5476 5484 5492 5498 5501 5504 5510 5516 5519 5520 5520 5518 5520 5518 5520 5525 5527 5527 5532 5536 5537 5535 5531 5531 5529 5532 5538 5540 5541 5541
5486 5471 5457 5441 5426 5411 5400 5403 5411 5425 5440 5452 5460 5469 5477 5487 5497 5499 5505 5515 5517 5519 5522 5521 5520 5517 5518 5523 5525 5529 5531 5533 5533 5537 5536 5538 5539 5538 5540 5540 5542 5547 5553
5478 5466 5452 5431 5415 5399 5391 5397 5404 5417 5434 5446 5457 5464 5473 5485 5494 5499 5504 5508 5512 5518 5521 5522 5521 5516 5519 5522 5527 5526 5528 5532 5535 5539 5541 5543 5546 5547 5546 5546 5544 5547 5550
5477 5466 5450 5428 5410 5398 5393 5398 5405 5417 5431 5441 5451 5460 5471 5481 5494 5497 5501 5504 5508 5516 5520 5515 5514 5514 5518 5520 5522 5526 5530 5539 5543 5548 5548 5549 5550 5551 5547 5548 5548 5549 5552
5480 5470 5453 5433 5413 5403 5403 5407 5413 5421 5431 5443 5449 5460 5470 5479 5488 5494 5505 5506 5506 5513 5513 5514 5515 5518 5519 5523 5523 5528 5535 5539 5544 5548 5549 5549 5549 5549 5552 5554 5555 5556 5559
5488 5475 5461 5446 5430 5423 5422 5423 5427 5433 5434 5444 5459 5463 5473 5482 5488 5489 5497 5507 5513 5516 5515 5515 5518 5521 5523 5526 5529 5532 5535 5538 5543 5546 5549 5551 5553 5553 5554 5555 5558 5559 5562
5494 5486 5475 5461 5451 5445 5443 5444 5443 5443 5449 5455 5460 5468 5477 5482 5487 5493 5497 5500 5505 5508 5513 5519 5521 5524 5526 5529 5532 5534 5537 5537 5544 5547 5550 5553 5556 5557 5557 5556 5558 5560 5562
5500 5493 5487 5476 5471 5466 5462 5462 5466 5464 5466 5470 5473 5476 5480 5486 5492 5497 5499 5502 5503 5506 5518 5520 5521 5519 5529 5529 5534 5537 5542 5544 5544 5548 5552 5554 5557 5560 5557 5560 5559 5560 5562
5505 5495 5494 5491 5488 5485 5483 5481 5481 5480 5480 5486 5488 5486 5488 5490 5494 5498 5500 5502 5509 5510 5522 5524 5524 5524 5529 5532 5536 5540 5544 5545 5546 5549 5552 5554 5556 5558 5559 5561 5562 5563 5564
5514 5511 5505 5501 5497 5494 5493 5493 5493 5492 5494 5496 5498 5499 5497 5497 5497 5498 5500 5512 5520 5522 5523 5524 5527 5527 5531 5534 5537 5540 5540 5547 5549 5551 5554 5556 5557 5558 5559 5561 5563 5556 5556
5519 5512 5507 5509 5506 5503 5502 5501 5501 5500 5499 5501 5503 5504 5503 5501 5504 5502 5504 5510 5515 5521 5523 5524 5527 5529 5532 5535 5537 5538 5541 5545 5548 5551 5553 5555 5557 5558 5560 5561 5562 5562 5562
5522 5520 5512 5512 5511 5509 5507 5505 5504 5504 5504 5504 5504 5503 5492 5500 5504 5502 5503 5503 5509 5516 5519 5523 5526 5530 5533 5535 5535 5538 5541 5545 5549 5551 5553 5553 5555 5556 5558 5560 5560 5560 5560
5518 5518 5516 5514 5514 5511 5509 5507 5505 5505 5505 5505 5505 5504 5492 5500 5507 5509 5508 5509 5510 5509 5510 5513 5521 5527 5531 5535 5539 5542 5544 5542 5544 5549 5548 5548 5552 5554 5557 5557 5557 5557 5557
5518 5516 5516 5515 5513 5510 5507 5506 5507 5505 5504 5504 5504 5505 5505 5505 5507 5508 5510 5511 5513 5512 5511 5510 5512 5518 5525 5527 5530 5534 5536 5539 5544 5546 5546 5548 5549 5550 5552 5552 5554 5555 5555
5517 5515 5513 5512 5511 5509 5509 5509 5507 5501 5501 5502 5502 5502 5503 5504 5505 5505 5506 5508 5508 5510 5512 5510 5510 5514 5516 5519 5521 5523 5529 5532 5533 5536 5537 5540 5542 5542 5545 5548 5550 5551 5551
5503 5504 5503 5505 5505 5505 5502 5503 5503 5504 5503 5502 5500 5498 5499 5500 5502 5502 5503 5505 5506 5507 5508 5510 5510 5510 5511 5512 5514 5516 5518 5519 5522 5525 5526 5528 5530 5532 5536 5539 5541 5542 5541
5494 5492 5492 5489 5487 5492 5493 5494 5492 5496 5497 5497 5497 5499 5498 5497 5497 5499 5500 5502 5503 5504 5505 5506 5507 5508 5508 5508 5509 5509 5511 5511 5511 5513 5517 5520 5523 5524 5523 5523 5526 5529 5531